TIME,DELAY(SENSOR),PRES,T(CTD),SAL,OXYGEN,RAWTEMP,T(OPTODE),TCPHASE,FLUOR,BETA(BETA700),BETA(BETA412),BETA(BETA440),CDOM,C(CSC),ED(ED411.90),ED(ED443.80),ED(ED489.40),ED(ED554.70),LU(LU412.20),LU(LU443.80),LU(LU489.40),LU(LU555.00),COMP,TILTX,TILTX(TILTY),CHECK
1360427105,5804,496.9700012207031000,17.2597999572753900,36.4154014587402340,223.2548980712890600,179.8607940673828000,17.2555294036865230,31.6527309417724600,57,127,95,80,68,11946,2146958692,2147511963,2147269403,2147463442,2147081024,2146957421,2147658212,2147127789,2800,-2,9,12735
1360427220,5802,486.3699951171875000,17.3542995452880860,36.4339981079101560,225.1772003173828000,176.8724975585937500,17.3456707000732420,31.5133399963378900,57,126,95,80,67,11944,2146958336,2147514240,2147272237,2147460370,2147085220,2146955346,2147656603,2147128548,2242,-1,8,35155
1360427347,5808,474.8500061035156000,17.4172992706298830,36.4477996826171900,227.0527038574218800,174.6381988525390600,17.4130706787109380,31.3875198364257800,58,125,95,79,67,11945,2146959917,2147513865,2147271158,2147456027,2147072420,2146956845,2147657435,2147127844,1734,-1,8,31367
1360427464,5805,464.4800109863281000,17.4888992309570300,36.4612998962402340,228.3628997802734400,172.1880035400390600,17.4869899749755860,31.2884807586669920,58,125,95,80,67,11945,2146959990,2147513673,2147271853,2147460324,2147075428,2146956489,2147654784,2147126976,966,-2,8,6573
1360427591,5808,453.2099914550781000,17.5898990631103500,36.4798011779785160,229.4673004150390600,168.7628936767578000,17.5903396606445300,31.1866092681884770,57,127,95,79,67,11943,2146961161,2147514925,2147273014,2147459529,2147079369,2146954770,2147655140,2147127012,497,-2,8,10417
1360427720,5805,441.8399963378906000,17.6459999084472660,36.4883003234863300,229.2263031005859400,167.0281066894531200,17.6426906585693360,31.1753997802734380,57,128,95,79,68,11940,2146958171,2147517330,2147269677,2147456822,2147075565,2146959707,2147654994,2147129938,3491,-1,8,65341
1360427847,5805,430.7600097656250000,17.7148990631103500,36.5000000000000000,229.7109985351562500,164.6652069091797000,17.7140102386474600,31.1191406250000000,58,127,96,79,67,11940,2146958930,2147510866,2147267062,2147457865,2147075264,2146959606,2147652946,2147129920,3158,-2,8,13952
1360427974,5807,419.7300109863281000,17.8257999420166000,36.5219001770019500,231.8009948730468800,161.0274963378906200,17.8238105773925780,30.9670906066894530,57,127,95,80,67,11943,2146959049,2147511890,2147269942,2147457280,2147072164,2146954898,2147656356,2147126436,2438,-1,8,8949
1360428103,5804,408.8999938964844000,17.8698997497558600,36.5301017761230500,232.5218963623047000,159.6213989257812500,17.8662700653076170,30.9129104614257800,57,126,95,79,67,11942,2146958756,2147515428,2147267821,2147454134,2147075209,2146958317,2147654043,2147127213,1554,-1,8,46549
1360428242,5803,397.7000122070312500,17.9050006866455080,36.5345001220703100,232.6309051513672000,158.5131988525390600,17.8997192382812500,30.8925590515136720,57,126,96,81,67,11939,2146960950,2147514468,2147268096,2147456685,2147074486,2146957110,2147652772,2147127158,1204,-1,8,9153
1360428383,5806,386.5899963378906000,17.9645996093750000,36.5437011718750000,232.3264007568359400,156.3934020996093800,17.9637298583984380,30.8790702819824220,57,127,96,79,67,11938,2146961618,2147512484,2147269705,2147454043,2147083456,2146960411,2147650724,2147128457,307,-1,8,46184
1360428522,5805,375.7300109863281000,18.0373001098632800,36.5535011291503900,231.7962951660156200,154.1421966552734400,18.0317192077636720,30.8747291564941400,58,127,95,80,67,11940,2146957458,2147514761,2147268708,2147455451,2147074605,2146964544,2147646893,2147124736,3290,-1,8,48821
1360428670,5807,363.5599975585937500,18.1112995147705080,36.5634994506835940,231.5234069824218800,151.5762023925781200,18.1092300415039060,30.8537502288818360,57,127,95,80,67,11938,2146960905,2147515282,2147269138,2147453513,2147080557,2146961801,2147655040,2147128676,3381,-1,8,43840
1360428785,5806,352.1099853515625000,18.1709003448486330,36.5689010620117200,230.2024993896484400,149.4911956787109400,18.1722106933593750,30.8908290863037100,56,128,97,81,67,11938,2146961362,2147513819,2147268388,2147455296,2147078683,2146960539,2147653339,2147127021,747,-1,8,60407
1360428900,5806,340.4400024414062500,18.2453994750976560,36.5751991271972660,228.9812011718750000,147.2366027832031200,18.2403297424316400,30.9207305908203120,56,126,95,80,67,11934,2146958738,2147513782,2147271094,2147454674,2147078747,2146966418,2147654756,2147129865,197,-1,8,24958
1360429005,5809,329.6400146484375000,18.3258991241455080,36.5849990844726560,228.2111968994140600,144.1246032714843800,18.3343696594238280,30.9174308776855470,57,129,95,81,67,11936,2146961581,2147513152,2147271131,2147452598,2147080182,2146958244,2147651108,2147128356,3538,-1,8,6903
1360429108,5806,319.0700073242187500,18.4286003112792970,36.5948982238769500,227.1083984375000000,141.1165008544922000,18.4252891540527340,30.9323196411132800,57,128,95,81,67,11934,2146958793,2147514048,2147268452,2147454372,2147079341,2146964178,2147652470,2147128374,3407,-1,8,56495
1360429223,5806,307.2600097656250000,18.5941009521484380,36.6068992614746100,224.8576965332031200,135.8011932373047000,18.5860004425048830,30.9741401672363280,56,128,96,79,68,11935,2146958564,2147513508,2147273280,2147451126,2147080585,2146960411,2147650989,2147129069,3494,-1,9,31638
1360429342,5804,296.6199951171875000,18.7182998657226560,36.6151008605957000,219.4951019287109400,131.6089019775390600,18.7127990722656250,31.1928005218505860,56,128,96,81,68,11935,2146955620,2147516105,2147267081,2147451300,2147076406,2146959433,2147652918,2147129664,291,-1,9,57550
1360429493,5806,285.7699890136719000,18.8195991516113280,36.6184997558593750,214.6905059814453000,128.2189941406250000,18.8153591156005860,31.3999500274658200,58,128,96,79,68,11935,2146960137,2147514121,2147267986,2147450121,2147081216,2146963757,2147655808,2147127561,883,-1,8,49199
1360429649,5807,274.3299865722656000,18.9358997344970700,36.6180992126464840,219.9243927001953000,124.1460037231445300,18.9386291503906250,31.0703697204589840,56,128,96,81,68,11935,2146960356,2147513417,2147268626,2147452105,2147081956,2146966619,2147657920,2147129874,3517,-2,8,57437
1360429776,5803,263.5299987792969000,19.0349006652832030,36.6114997863769500,223.7102050781250000,121.0253982543945300,19.0331096649169920,30.8349208831787100,57,129,97,80,68,11931,2146958701,2147510985,2147268123,2147450788,2147080923,2146965696,2147670162,2147131355,2016,-2,9,42102
1360429905,5804,252.5899963378906200,19.1819000244140620,36.6040992736816400,228.2265014648437500,116.3526992797851600,19.1746196746826170,30.5472393035888670,55,127,97,81,67,11928,2146956672,2147513170,2147266697,2147446729,2147082459,2146973248,2147667309,2147131410,1625,-2,8,53644
1360430032,5803,241.8800048828125000,19.3005008697509770,36.6097984313964840,230.5019073486328000,111.9298019409179700,19.3086299896240230,30.3770809173584000,57,132,96,81,65,11932,2146957741,2147511936,2147266861,2147446884,2147082386,2146972955,2147675446,2147130861,1160,-2,9,15990
1360430171,5804,230.6000061035156200,19.3540000915527340,36.5943984985351560,234.1233978271484400,110.1793975830078100,19.3616790771484380,30.1792907714843750,58,129,98,81,67,11928,2146958299,2147512786,2147266358,2147448329,2147083812,2146974729,2147686445,2147130825,1970,-1,8,4254
1360430312,5804,219.8399963378906200,19.4442005157470700,36.5924987792968750,236.4795989990234400,107.4872970581054700,19.4432907104492200,30.0320396423339840,57,132,98,83,66,11927,2146959058,2147512804,2147265865,2147448100,2147086729,2146981778,2147704804,2147129819,2271,-1,9,12343
1360430463,5805,208.4600067138672000,19.7926998138427730,36.6473007202148440,232.2429046630859400,96.3306503295898400,19.7817306518554700,30.0882892608642580,56,129,97,81,67,11926,2146958582,2147511296,2147265024,2147447140,2147082230,2146982902,2147696694,2147131346,1592,-2,9,32350
1360430609,5802,197.4100036621093800,19.9902992248535160,36.6572990417480500,229.3070983886718800,89.8159866333007800,19.9795494079589840,30.1452999114990230,59,131,97,82,67,11925,2146959433,2147512109,2147268260,2147445312,2147085321,2147012361,2147750125,2147137362,1531,-2,8,51051
1360430664,5804,193.4100036621093800,20.0699005126953120,36.6600990295410160,229.5310974121093800,87.0560684204101600,20.0634002685546880,30.0982799530029300,60,131,98,80,68,11923,2146959936,2147514779,2147267693,2147446436,2147085595,2147014372,2147767872,2147137664,1515,-2,9,48755
1360430719,5805,189.6300048828125000,20.1345005035400400,36.6694984436035160,229.1387023925781200,84.7960433959961000,20.1320800781250000,30.0882606506347660,59,129,97,82,67,11922,2146956187,2147514413,2147266925,2147441627,2147085979,2147017362,2147780269,2147139712,1390,-2,9,65478
1360430774,5802,186.1999969482422000,20.2742004394531250,36.6785011291503900,228.4709014892578000,80.5785980224609400,20.2602996826171880,30.0658607482910160,60,132,97,81,67,11922,2146957037,2147514742,2147267190,2147443730,2147085650,2147027492,2147795721,2147138624,1236,-2,9,4550
1360430865,5808,181.7200012207031200,20.3561000823974600,36.6800003051757800,228.4033050537109400,77.6165618896484400,20.3503894805908200,30.0306301116943360,60,130,98,81,68,11919,2146955995,2147515684,2147269065,2147445257,2147089609,2147043044,2147831350,2147143350,1796,-1,9,22055
1360430992,5805,178.2899932861328000,20.3976001739501950,36.6755981445312500,230.0585937500000000,76.2539596557617200,20.3918495178222660,29.9321899414062500,60,132,96,82,67,11920,2146956096,2147514816,2147267081,2147441846,2147089718,2147040493,2147811712,2147140214,2758,-2,9,44743
1360431176,5808,174.0899963378906200,20.9069004058837900,36.7028007507324200,228.7563018798828000,60.5382003784179700,20.8705101013183600,29.7921791076660160,61,137,98,83,66,11914,2146958573,2147515337,2147269979,2147439012,2147093385,2147061485,2147864128,2147142080,463,-1,8,1446
1360431303,5805,169.7200012207031200,21.0687999725341800,36.7262992858886700,223.5753936767578000,54.5430297851562500,21.0533695220947270,29.9693393707275400,61,131,97,81,68,11913,2146957842,2147514651,2147269814,2147438939,2147096530,2147077010,2147894491,2147146166,686,-2,9,29072
1360431406,5806,165.7200012207031200,21.1051006317138670,36.7328987121582000,220.9407958984375000,52.8382606506347660,21.1054000854492200,30.0793495178222660,60,132,97,81,67,11919,2146956406,2147514980,2147273069,2147436598,2147099382,2147091803,2147916717,2147146084,1205,-1,9,5432
1360431508,5803,161.4799957275390600,21.4372005462646500,36.7495994567871100,215.9210052490234400,42.1914405822753900,21.4306297302246100,30.1977005004882800,59,144,98,81,67,11917,2146956525,2147515821,2147272722,2147439021,2147106240,2147114267,2147960713,2147146806,2116,-2,8,44915
1360431599,5808,158.0099945068359400,21.6016998291015620,36.7715988159179700,209.2584991455078000,36.7669792175293000,21.5965309143066400,30.4777698516845700,59,136,98,82,68,11920,2146959862,2147518034,2147273600,2147438848,2147101522,2147131218,2147989357,2147154221,2705,-1,9,27024
1360431726,5805,154.1300048828125000,21.9388999938964840,36.8023986816406250,199.0399017333984400,25.8950405120849600,21.9294700622558600,30.8991107940673830,60,132,96,84,69,11922,2146957229,2147515638,2147272859,2147435666,2147109906,2147153956,2148026898,2147155081,3321,-2,8,48179
1360431853,5805,149.2700042724609400,21.9747009277343750,36.8101005554199200,196.2579040527343800,24.5933094024658200,21.9693794250488280,31.0413208007812500,59,131,95,82,69,11923,2146960155,2147516361,2147274203,2147434651,2147118893,2147186651,2148088283,2147158244,2451,-2,9,62728
1360431932,5807,144.8399963378906200,22.0034008026123050,36.7784004211425800,193.9920959472656200,24.7132892608642580,21.9657001495361330,31.1744804382324220,59,132,97,82,68,11920,2146961801,2147519204,2147278016,2147433481,2147132443,2147224585,2148161389,2147164169,2639,-1,9,6436
1360431999,5803,140.8899993896484400,22.0485992431640620,36.7549018859863300,204.4221954345703000,22.1714992523193360,22.0436401367187500,30.5496807098388670,60,135,97,82,66,11915,2146957961,2147521115,2147278564,2147429970,2147146002,2147274020,2148229613,2147166738,2843,-1,8,38348
1360432066,5806,137.0500030517578000,22.2782993316650400,36.7717018127441400,206.3713989257812500,15.1385602951049800,22.2594699859619140,30.3514308929443360,61,135,97,81,66,11911,2146959350,2147523017,2147282770,2147434057,2147159552,2147329545,2148324434,2147176164,34,-1,8,7289
1360432135,5806,133.7299957275390600,22.3885002136230470,36.7747993469238300,203.3325958251953000,10.6482000350952150,22.3974094390869140,30.4589595794677730,62,135,97,81,67,11912,2146958848,2147521618,2147287817,2147432356,2147177088,2147376612,2148407460,2147180278,476,-2,8,28768
1360432226,5807,129.8699951171875000,22.4412002563476560,36.7708015441894500,203.3773040771484400,9.1459388732910160,22.4435806274414060,30.4371700286865230,63,136,97,82,66,11907,2146956909,2147523072,2147291776,2147432118,2147201910,2147445220,2148516992,2147188544,485,-2,9,21010
1360432329,5806,125.7600021362304700,22.4141006469726560,36.7346000671386700,206.9411010742187500,10.0849599838256840,22.4147205352783200,30.2548809051513670,63,134,97,82,65,11902,2146961627,2147528064,2147294006,2147431753,2147233307,2147533138,2148648502,2147196918,182,-1,9,6216
1360432434,5805,121.5299987792968800,22.4993000030517580,36.7473983764648440,208.8300018310547000,7.8204097747802730,22.4843292236328120,30.1240997314453120,64,133,98,82,66,11903,2146965129,2147531666,2147304000,2147429723,2147276973,2147634368,2148793746,2147206646,647,-2,8,3287
1360432525,5809,118.1100006103515600,22.4339008331298830,36.7023010253906250,213.2816009521484400,9.3055572509765620,22.4386806488037100,29.9087505340576170,64,135,97,83,65,11900,2146963062,2147534546,2147306971,2147430518,2147323666,2147749019,2148954093,2147219337,331,-2,9,10283
1360432664,5804,114.4899978637695300,22.3267002105712900,36.5904006958007800,225.4230041503906200,12.7263803482055660,22.3335609436035160,29.3412990570068360,65,140,98,83,65,11881,2146966390,2147535917,2147307666,2147426797,2147372004,2147848612,2149089078,2147230025,2470,-2,9,37896
1360432850,5805,109.9199981689453100,22.2770996093750000,36.5489997863769500,236.4355010986328000,14.5930204391479500,22.2762203216552730,28.8432197570800780,69,143,101,85,64,11855,2146972836,2147545197,2147320054,2147429979,2147487433,2148043264,2149380443,2147250185,2513,-2,9,42878
1360432953,5804,105.8099975585937500,22.3446006774902340,36.5077018737793000,241.3791046142578000,13.3175497055053710,22.3153991699218750,28.6022300720214840,72,147,100,86,62,11837,2146973165,2147548726,2147327698,2147430646,2147603181,2148257417,2149665627,2147276178,2323,-2,9,12559
1360433068,5806,100.4700012207031200,22.3784008026123050,36.5023002624511700,243.8204956054687500,10.9672403335571290,22.3876094818115230,28.4637794494628900,69,145,99,84,62,11845,2146985380,2147564470,2147350976,2147431451,2147806838,2148632804,2150191670,2147323017,2192,-2,9,62062
1360433123,5805,96.8499984741211000,22.4360008239746100,36.4964981079101560,244.6069030761718800,9.4168872833251950,22.4352607727050780,28.4095802307128900,73,148,101,86,63,11851,2146987035,2147575478,2147371373,2147433563,2147986998,2148949613,2150622381,2147359634,2057,-2,9,15635
1360433178,5808,93.3300018310546900,22.7968006134033200,36.4523010253906250,244.3395996093750000,-0.9283035993576050,22.7535495758056640,28.2924900054931640,72,147,99,86,62,11837,2146999762,2147584594,2147384576,2147434002,2148160576,2149238838,2150990893,2147397476,1843,-2,9,10345
1360433233,5804,90.9199981689453100,22.9976005554199220,36.4628982543945300,244.3144989013672000,-8.1514482498168950,22.9761505126953120,28.2038593292236330,73,149,99,87,62,11836,2147002267,2147592621,2147397952,2147435172,2148282578,2149442578,2151264832,2147422866,1668,-2,9,55276
1360433300,5804,89.4300003051757800,23.0720005035400400,36.4709014892578100,244.3502960205078000,-10.5361795425415040,23.0497093200683600,28.1726703643798830,73,143,99,85,62,11838,2147006939,2147600100,2147405650,2147433984,2148404434,2149644836,2151537920,2147444882,1940,-2,9,37077
1360433441,5805,87.5699996948242200,23.1700000762939450,36.4712982177734400,244.2001037597656200,-13.6591100692749020,23.1460895538330080,28.1404895782470700,70,143,100,85,63,11846,2147010148,2147603364,2147412644,2147434166,2148543533,2149853376,2151806272,2147473664,2146,-2,9,19842
1360433580,5801,85.6299972534179700,23.2534999847412100,36.4761009216308600,243.7039947509765600,-16.9770698547363280,23.2485504150390620,28.1212596893310550,68,141,100,85,62,11850,2147019620,2147616219,2147432493,2147435145,2148762221,2150223177,2152277357,2147517805,2211,-2,9,52253
1360433706,5803,83.1100006103515600,23.4057998657226560,36.4626007080078100,243.0691070556640600,-21.7129993438720700,23.3949298858642580,28.0906791687011720,66,142,100,83,63,11841,2147024749,2147625590,2147436379,2147432027,2148879094,2150322852,2152360283,2147527780,2156,-2,9,3143
1360433773,5806,81.3600006103515600,23.5060005187988280,36.4547996520996100,242.3099975585937500,-24.9159908294677730,23.4939994812011720,28.0846691131591800,69,144,99,85,63,11836,2147039808,2147641353,2147461476,2147434267,2149183286,2150849106,2153076388,2147596772,2112,-2,9,15943
1360433876,5802,79.2399978637695300,23.5755996704101560,36.4504013061523440,241.7095031738281200,-27.2039508819580080,23.5648097991943360,28.0829105377197270,69,142,98,85,62,11851,2147046957,2147652022,2147486701,2147433691,2149443062,2151210048,2153539355,2147651840,1638,-2,9,37375
1360433955,5805,77.2799987792968800,23.6891994476318360,36.4058990478515600,241.0511016845703000,-30.7007999420166000,23.6730995178222660,28.0687503814697270,67,141,99,84,63,11844,2147059017,2147658852,2147505042,2147434669,2149640722,2151486208,2153868982,2147689161,1489,-2,9,11158
1360434046,5803,74.7099990844726600,23.7415008544921880,36.3708992004394500,241.2097930908203000,-32.5233802795410160,23.7295703887939450,28.0391006469726560,70,141,100,85,61,11843,2147070244,2147678061,2147535314,2147440201,2150005302,2151998226,2154482998,2147763629,1280,-2,9,19912
1360434101,5804,72.8099975585937500,23.8003997802734380,36.3465995788574200,241.3795928955078000,-34.4624900817871100,23.7896804809570300,28.0076103210449220,71,145,99,85,62,11841,2147079972,2147699364,2147551195,2147441545,2150320228,2152437677,2155050084,2147829705,1441,-2,9,13114
1360434156,5802,71.3099975585937500,23.8271007537841800,36.3427009582519500,241.6311950683593800,-35.4296493530273440,23.8196697235107420,27.9846000671386720,72,151,101,86,61,11831,2147088365,2147707163,2147579300,2147442349,2150556214,2152769581,2155463232,2147886555,1243,-2,9,20914
1360434247,5806,69.1299972534179700,23.8803997039794920,36.3308982849121100,241.8049011230468800,-37.0321197509765600,23.8693695068359380,27.9570198059082030,72,143,100,84,62,11838,2147105828,2147724891,2147624356,2147456082,2150910171,2153224704,2156030372,2147973366,922,-1,9,58582
1360434337,5806,66.7600021362304700,23.9101009368896500,36.3226013183593750,241.8845062255859400,-38.1619415283203100,23.9044208526611330,27.9396705627441400,74,147,100,84,61,11832,2147123986,2147747154,2147663542,2147462482,2151401499,2153864868,2156813275,2148092288,939,-2,9,13882
1360434392,5804,64.5299987792968800,23.9298000335693360,36.3167991638183600,242.0301055908203000,-39.1302680969238300,23.9344692230224600,27.9212608337402340,73,143,99,86,62,11827,2147145334,2147771382,2147698724,2147467648,2151988269,2154606180,2157773238,2148234916,1029,-2,9,58963
1360434447,5803,62.2099990844726560,23.9750995635986330,36.3102989196777340,242.1224975585937500,-40.3375892639160160,23.9719390869140620,27.9022197723388670,74,145,99,85,62,11818,2147170066,2147798125,2147734299,2147465490,2152699876,2155510637,2158906925,2148414153,1220,-2,9,1722
1360434502,5804,59.9900016784668000,23.9839000701904300,36.3086013793945300,242.2814941406250000,-40.6578102111816400,23.9818897247314450,27.8913803100585940,74,146,101,84,64,11805,2147194422,2147823497,2147786934,2147484260,2153237878,2156124717,2159593554,2148553206,1044,-2,9,24708
1360434557,5805,57.8600006103515600,24.0328998565673830,36.2980003356933600,242.2102966308593800,-42.0671310424804700,24.0256500244140620,27.8770599365234380,76,145,101,85,63,11806,2147224155,2147859602,2147860050,2147509504,2153921280,2156964891,2160583012,2148728018,676,-2,9,46449
1360434612,5805,56.0200004577636700,24.0650997161865230,36.2944984436035160,242.0858001708984400,-43.3566703796386700,24.0657005310058600,27.8667297363281250,76,144,100,86,63,11803,2147249581,2147884891,2147899236,2147519579,2154506422,2157617298,2161326427,2148875017,529,-1,9,24801
1360434776,5807,49.8600006103515600,24.1385002136230470,36.2760009765625000,242.0498046875000000,-45.7276306152343750,24.1393699645996100,27.8389606475830080,75,146,101,85,62,11770,2147365814,2148011410,2148100973,2147575232,2157829385,2161552612,2165869421,2149823104,546,-2,8,46551
1360434810,5804,48.1500015258789060,24.1721992492675780,36.2678985595703100,242.6040039062500000,-46.6328201293945300,24.1674995422363280,27.8035697937011720,75,148,101,86,61,11753,2147414765,2148058861,2148152192,2147581558,2158940681,2162937581,2167502784,2150156288,355,-1,9,43413
1360434843,5805,46.2900009155273440,24.1777992248535160,36.2664985656738300,242.5659942626953000,-46.9089813232421900,24.1760902404785160,27.8019008636474600,75,146,101,86,62,11752,2147465042,2148119341,2148217590,2147584457,2160365284,2164585280,2169280960,2150530715,204,-2,9,3854
1360434876,5804,44.3899993896484400,24.1928005218505860,36.2620010375976560,242.7877960205078000,-47.3727912902832000,24.1905097961425780,27.7863197326660160,74,148,101,87,62,11749,2147522203,2148177005,2148281161,2147589824,2161744411,2166133860,2170859986,2150927872,105,-2,9,28105
1360434909,5804,42.5699996948242200,24.1989994049072270,36.2611007690429700,242.6869964599609400,-47.5724411010742200,24.1967105865478500,27.7883491516113280,74,148,101,86,60,11745,2147584566,2148232521,2148322550,2147583542,2163338322,2168017984,2172821705,2151429147,3441,-2,8,21766
1360434942,5807,40.7599983215332000,24.1937999725341800,36.2625007629394500,243.0093994140625000,-47.7400207519531250,24.2019195556640620,27.7721996307373050,75,149,100,85,62,11746,2147635373,2148277458,2148327378,2147555300,2164759012,2169590518,2174521974,2151850825,2800,-2,9,46797
1360434989,5803,38.3300018310546900,24.2066993713378900,36.2607002258300800,242.7769012451172000,-47.8981590270996100,24.2068405151367200,27.7805004119873050,76,147,101,86,61,11737,2147742893,2148395273,2148467739,2147580397,2167558482,2172826587,2178019291,2152733184,2281,-2,9,1101
1360435022,5805,36.8499984741210940,24.2094001770019530,36.2602005004882800,242.6652069091797000,-47.9261894226074200,24.2077102661132800,27.7849597930908200,74,147,102,86,65,11740,2147825307,2148484882,2148576164,2147599195,2169732004,2175308818,2180569298,2153525869,2160,-2,9,36578
1360435079,5803,34.7599983215332000,24.2077999114990230,36.2608985900878900,242.6307067871093800,-47.9313011169433600,24.2078704833984380,27.7862701416015620,73,146,101,86,62,11738,2147927780,2148594715,2148709961,2147631926,2172456969,2178399387,2183723035,2154374235,2071,-1,9,65369
1360435160,5802,32.6399993896484400,24.2070007324218750,36.2607994079589840,242.7881011962890600,-47.9079017639160160,24.2071399688720700,27.7798805236816400,74,150,102,87,62,11736,2148049929,2148706258,2148834678,2147662774,2175647661,2181913737,2187074422,2155448950,2191,-1,8,24382
1360435229,5806,30.5300006866455080,24.2068004608154300,36.2613983154296900,242.8139953613281200,-47.9925804138183600,24.2097797393798830,27.7776603698730470,74,145,100,87,62,11737,2148226331,2148900873,2149123977,2147762980,2179899730,2186573348,2192085001,2157067721,1635,-2,9,45102